Regional Weather Roundup
Issued by NWS Kansas City/Pleasant Hill, MO

Home | Current Version | Previous Version | Text Only | Print | Product List | Glossary On
Versions: 1 2 3 4 5 6 7 8 9 10 11 12 13 14 15 16 17 18 19 20 21 22 23 24 25 26 27 28 29 30 31 32 33 34 35 36 37 38 39 40 41 42 43 44 45 46 47 48 49 50
000
ASUS43 KEAX 221610
RWREAX

WEATHER ROUNDUP FOR EASTERN KANSAS AND NORTHWEST MISSOURI
NATIONAL WEATHER SERVICE KANSAS CITY/PLEASANT HILL MO
1000 AM CST SUN JAN 22 2017

KSZ040-057-103>105-MOZ028-029-037-043-221700-
...KANSAS CITY METROPOLITAN AREA...

CITY           SKY/WX    TMP DP  RH WIND       PRES   REMARKS
K.C. INTL      CLOUDY    41  34  76 N13       29.70R WCI  34
K.C. DOWNTOWN  CLOUDY    44  40  85 N9        29.70R
LEES SUMMIT    CLOUDY    44  42  93 N7        29.68R
OLATHE - IXD   CLOUDY    44  41  89 N14       29.70R
OLATHE - OJC   CLOUDY    44  41  89 N10       29.68R
LAWRENCE       CLOUDY    41  36  82 N7        29.72R

$$

MOZ001>008-011>017-020>025-030>033-038>040-044>046-053-054-221700-
...NORTHERN AND CENTRAL MISSOURI...

CITY           SKY/WX    TMP DP  RH WIND       PRES   REMARKS
ST. JOSEPH     CLOUDY    33  32  96 N12       29.75R WCI  24
MOSBY          CLOUDY    43  39  87 N9        29.70R
WARRENSBURG    DRIZZLE   43  43 100 N12       29.65R
WHITEMAN AFB   LGT RAIN  44  44 100 N14       29.62R FOG
CLINTON        MIX PCPN  45  45 100 NE21G30   29.59R
SEDALIA        LGT RAIN  45  43  93 N17       29.62R
WARSAW         NOT AVBL
CHILLICOTHE      N/A     36  35  96 N7        29.71R WCI  30
KIRKSVILLE     CLOUDY    38  38 100 N10       29.67R FOG     WCI  31

$$

MOZ041-047>049-056>058-063>065-088>090-097-221700-
...EASTERN AND SOUTHERN MISSOURI...

CITY           SKY/WX    TMP DP  RH WIND       PRES   REMARKS
ST. LOUIS INTL CLOUDY    49  43  80 N14       29.53S
SPIRIT OF STL  CLOUDY    48  44  86 N7        29.54R
COLUMBIA       CLOUDY    45  41  86 N16       29.59R
JEFFERSON CITY CLOUDY    46  40  79 N9        29.58R
ROLLA          CLOUDY    46  45  96 N16       29.51R FOG
OSAGE BEACH    RAIN      46  43  89 N5        29.56R
SPRINGFIELD    CLOUDY    49  46  90 NE16      29.49R
BRANSON        LGT RAIN  50  50 100 NE9       29.44R VSB 1
JOPLIN         RAIN      47  47 100 N18G28    29.54R FOG
WEST PLAINS    LGT RAIN  54  53  97 N8        29.45R

$$

IAZ060-094-KSZ022-034>040-054-083-096-NEZ052-066-093-221700-
...KANSAS...SOUTHEAST NEBRASKA AND IOWA...

CITY           SKY/WX    TMP DP  RH WIND       PRES   REMARKS
TOPEKA         PTSUNNY   42  35  76 N8        29.73R
MANHATTAN      SUNNY     41  33  73 VRB6      29.75R
EMPORIA        CLOUDY    44  38  79 N13       29.72R
CHANUTE        LGT RAIN  47  44  90 N16G28    29.65R
WICHITA        MOSUNNY   44  38  79 N16G26    29.73R
OMAHA          CLOUDY    34  29  82 N9        29.77R WCI  27
LINCOLN        CLOUDY    34  31  88 NW10      29.81R WCI  26
FALLS CITY     CLOUDY    32  30  92 N12G22    29.75R WCI  23
LAMONI         CLOUDY    32  31  96 N10       29.70R WCI  24
DES MOINES     CLOUDY    35  33  92 NW9       29.72R FOG     WCI  28

$$




USA.gov is the U.S. government's official web portal to all federal, state and local government web resources and services.